This is the latest recevied weather packets stored in our database for station/object N1TKS. If no packets are shown the sender has not sent any weather packets the latest 10 day(s).
| Time | Temp. | Humidity | Pressure | Rain* | Wind** | Luminosity | Snow |
|---|---|---|---|---|---|---|---|
| 1777647415 | 13.89° C | 46% | 1013.1 hPa | 0 mm | - | - | - |
| 1777647203 | 14.44° C | 47% | 1013.2 hPa | 0 mm | - | - | - |
| 1777647114 | 14.44° C | 47% | 1013.2 hPa | 0 mm | - | - | - |
| 1777646815 | 13.89° C | 48% | 1013.2 hPa | 0 mm | - | - | - |
| 1777646632 | 13.89° C | 48% | 1013.2 hPa | 0 mm | - | - | - |
| 1777646515 | 13.89° C | 48% | 1013.2 hPa | 0 mm | - | - | - |
| 1777646338 | 13.33° C | 50% | 1013.2 hPa | 0 mm | - | - | - |
| 1777646214 | 13.33° C | 50% | 1013.2 hPa | 0 mm | - | - | - |
| 1777646008 | 13.33° C | 50% | 1013.2 hPa | 0 mm | - | - | - |
| 1777645913 | 13.33° C | 50% | 1013.2 hPa | 0 mm | - | - | - |
| 1777645614 | 12.78° C | 49% | 1013.3 hPa | 0 mm | - | - | - |
| 1777645560 | 12.78° C | 51% | 1013.2 hPa | 0 mm | - | - | - |
| 1777645553 | 12.78° C | 51% | 1013.3 hPa | 0 mm | - | - | - |
| 1777645315 | 12.78° C | 50% | 1013.2 hPa | 0 mm | - | - | - |
| 1777645196 | 12.78° C | 51% | 1013.1 hPa | 0 mm | - | - | - |
| 1777645154 | 12.78° C | 51% | 1013.1 hPa | 0 mm | - | - | - |
| 1777645014 | 12.78° C | 51% | 1013.1 hPa | 0 mm | - | - | - |
| 1777644851 | 12.78° C | 50% | 1013.1 hPa | 0 mm | - | - | - |
| 1777644715 | 12.78° C | 50% | 1013.1 hPa | 0 mm | - | - | - |
| 1777644413 | 12.78° C | 51% | 1013.2 hPa | 0 mm | - | - | - |
| 1777644114 | 12.78° C | 51% | 1013.3 hPa | 0 mm | - | - | - |
| 1777643642 | 12.78° C | 53% | 1013.4 hPa | 0 mm | - | - | - |
| 1777643628 | 12.22° C | 56% | 1013.4 hPa | 0 mm | - | - | - |
| 1777643213 | 12.22° C | 53% | 1013.4 hPa | 0 mm | - | - | - |
| 1777643032 | 12.78° C | 52% | 1013.4 hPa | 0 mm | - | - | - |
* Rain latest hour (hover to see other rain measurements)
** Current wind speed in m/s (hover to see current wind gust speed)